Location: Azul
(36.7830°S, 59.8500°W)
Time: 17:50:49
(UTC-03:00)

ZACube-1 - Pass Details

Date: 28 October 2021
Orbit: 584 x 664 km, 97.6° (Epoch: 07 December)

Event Time Altitude Azimuth Distance (km) Brightness Sun altitude
Rises 04:57:54 0° 2° (N) 2,922 ? -12.0°
Reaches altitude 10° 05:00:06 10° 357° (N) 2,034 ? -11.7°
Maximum altitude 05:04:27 53° 280° (W) 809 ? -10.9°
Drops below altitude 10° 05:08:57 10° 202° (SSW) 2,102 ? -10.1°
Sets 05:11:16 0° 197° (SSW) 3,030 ? -9.6°
